Wind_Speed
12 11 10 9 8 7 7 7 7 8 10 11 12 14 15 17 18 19 20 21 22 23 23 24 25 25 25 24 24 24 24 24 23 22 21 21 20 19 20 21 23 25 27 28 28 28 29 30 31 33 33 33 33 34 34 34 34 35 35 35 36 35 35 36 36 35 37 37 36 36 36 34 34 33 29 25 22 21 19 15 13 15 16 16 14 12 11
12 11 10 8 7 6 6 6 6 7 9 10 12 13 14 16 17 18 20 21 21 22 23 24 25 26 26 26 26 26 25 26 25 25 24 23 23 21 21 20 21 24 27 28 30 30 30 31 32 33 34 35 36 36 36 36 36 37 37 38 38 37 37 37 37 37 38 38 38 38 38 38 37 35 32 29 26 24 21 17 16 17 16 15 16 16 14
12 10 9 7 6 5 5 5 5 7 8 9 11 12 14 15 16 18 19 21 22 23 23 24 25 26 27 27 28 28 28 28 27 27 27 27 26 25 24 22 21 22 25 28 30 32 32 33 34 34 35 36 37 38 39 39 39 39 40 40 40 39 39 40 40 40 39 40 40 38 37 38 39 37 35 33 31 29 25 21 20 20 19 18 18 19 18
12 10 8 6 5 4 3 3 4 6 7 9 10 11 13 15 16 18 19 20 22 23 24 25 26 27 28 28 29 29 30 30 30 30 30 30 30 29 28 27 26 25 25 27 30 32 34 35 36 37 39 39 40 41 42 43 43 43 43 43 43 42 41 42 43 43 42 42 42 40 38 38 40 39 37 35 34 33 30 26 24 24 23 22 21 22 21
11 9 8 6 4 3 1 2 3 4 6 8 10 12 13 15 17 18 19 21 22 23 25 26 27 28 29 29 30 31 32 33 33 33 33 33 33 32 31 31 31 30 29 30 31 33 35 36 37 39 40 41 43 43 44 46 47 47 47 47 46 45 44 45 45 47 47 46 45 43 41 41 40 40 39 38 37 36 35 32 29 28 28 26 24 24 24
10 9 7 6 4 2 1 1 3 5 6 8 10 12 14 16 18 19 21 22 23 25 26 27 28 29 30 30 31 32 33 34 35 36 37 37 36 35 35 35 34 33 33 32 33 35 37 38 39 40 41 43 43 44 45 46 48 49 49 49 49 47 47 47 48 49 51 50 48 47 45 44 43 42 42 41 39 39 38 37 34 32 32 30 27 26 27
10 8 7 6 4 3 2 2 4 6 8 9 11 12 14 16 19 21 22 24 25 26 27 29 30 31 31 32 32 33 34 35 37 38 39 40 39 39 38 38 37 36 36 35 35 37 38 40 41 42 43 44 45 45 45 45 46 48 49 49 49 48 48 48 49 50 52 53 52 50 49 48 48 47 46 44 42 41 41 40 38 36 36 34 31 30 29
10 8 7 6 5 5 4 5 6 7 9 11 13 14 16 18 20 22 23 25 27 28 30 31 32 33 34 35 36 36 37 38 39 41 41 42 43 43 42 42 41 39 39 38 38 39 40 42 43 43 43 45 46 46 47 46 46 47 48 49 48 47 47 47 48 50 53 55 55 54 53 51 51 51 51 48 46 45 43 42 41 40 39 38 35 34 32
10 9 8 7 7 7 7 8 9 10 11 12 14 16 18 20 22 24 25 27 28 30 31 33 34 36 38 39 40 40 41 41 42 44 45 45 46 46 46 46 45 43 42 41 40 41 42 43 46 46 46 46 47 47 48 49 48 47 48 49 49 48 47 47 48 49 51 55 56 55 55 54 54 55 54 52 51 49 46 44 42 42 42 41 40 39 36
11 10 9 9 9 9 10 11 12 13 14 16 17 18 20 21 23 25 27 29 30 31 33 34 36 38 40 41 43 44 45 46 47 47 49 50 50 51 51 50 48 46 45 45 44 43 43 44 46 48 49 49 49 48 48 49 49 50 50 50 49 49 48 49 50 48 49 54 57 56 56 57 57 57 56 55 55 53 50 47 45 44 45 45 44 43 40
12 11 11 10 11 11 12 14 15 16 17 18 19 21 23 24 25 27 29 30 32 33 35 37 39 41 42 44 46 47 48 50 51 52 53 53 54 55 55 54 53 51 49 48 46 44 43 44 46 48 49 50 52 52 51 51 50 51 52 52 51 51 49 50 51 49 49 53 57 57 57 58 58 58 58 58 58 57 53 51 48 46 46 47 47 46 44
13 13 12 13 13 14 15 16 17 18 19 21 22 23 25 26 28 30 31 32 34 36 38 40 42 44 45 47 48 50 51 53 54 56 57 58 59 59 59 58 56 56 54 52 49 46 45 45 46 47 49 50 52 53 54 54 53 52 52 53 53 53 52 51 50 49 50 53 57 59 58 58 58 60 60 60 60 59 57 55 52 49 48 49 49 49 47
14 14 15 15 16 17 18 19 20 21 23 24 25 26 28 29 31 32 33 35 36 39 41 43 45 47 49 50 51 53 54 56 57 59 61 62 63 64 63 62 60 59 57 55 52 49 48 47 46 47 48 49 51 52 53 55 56 55 54 54 54 54 54 53 51 50 49 52 56 58 57 57 59 61 62 62 62 61 60 57 55 53 52 51 51 51 50
16 16 17 18 19 20 21 22 23 24 26 27 28 29 31 32 34 35 37 38 40 41 44 46 48 50 52 53 55 56 57 59 60 62 64 65 67 67 67 65 64 62 60 57 54 51 49 48 48 48 49 49 50 51 52 54 55 56 56 56 55 54 54 55 54 52 49 51 56 56 56 59 60 61 63 65 64 63 62 59 57 55 54 53 53 52 51
18 19 20 21 22 23 24 24 25 27 28 30 32 33 34 35 36 38 40 42 44 45 47 49 51 52 54 56 58 59 60 61 63 65 67 68 70 70 69 68 66 64 61 58 56 53 51 50 49 50 50 51 51 51 51 53 53 55 56 57 56 55 54 54 56 55 51 51 54 57 57 58 59 61 63 64 64 65 64 61 58 56 56 56 55 53 52
20 21 22 24 25 26 26 27 28 29 31 33 34 36 37 38 39 41 43 45 47 48 50 52 53 55 56 58 60 61 62 64 66 68 69 71 72 71 71 69 67 65 62 59 56 54 52 51 51 51 51 53 53 52 51 51 52 52 54 56 56 55 54 53 54 56 55 52 53 56 57 57 59 62 63 62 62 64 65 63 60 57 57 57 56 55 54
23 24 25 26 28 29 29 30 31 32 34 36 37 38 40 41 43 44 46 47 50 51 53 55 57 58 59 61 62 64 65 67 69 71 73 74 74 74 72 70 67 64 62 59 56 54 52 51 51 51 51 52 53 53 51 51 51 51 51 53 54 54 53 53 53 55 56 54 52 54 57 59 61 64 65 64 62 58 59 62 62 58 57 58 58 57 56
25 26 28 29 30 31 32 33 34 36 37 39 40 40 42 44 45 47 48 50 52 54 56 57 59 61 63 64 65 67 68 70 72 74 76 77 76 76 74 71 68 64 61 58 56 54 53 52 51 51 50 51 51 52 52 52 52 51 50 50 51 51 51 51 52 53 54 54 52 52 56 59 61 64 66 67 66 60 55 55 59 60 60 60 59 59 58
28 29 30 32 33 34 35 37 38 39 41 42 43 43 44 45 47 49 50 52 54 56 58 60 62 64 66 67 68 69 71 73 75 77 78 78 78 76 74 72 68 65 61 59 56 54 53 52 51 50 49 49 49 50 51 51 51 52 52 49 47 47 48 49 51 52 52 52 51 50 53 56 60 63 65 67 69 67 60 54 54 58 62 62 61 60 59
31 31 32 34 35 37 38 40 41 42 44 45 45 45 46 48 50 51 52 54 56 58 61 63 65 67 68 70 70 72 74 76 78 79 79 79 78 76 73 71 68 65 62 59 57 55 53 51 50 49 48 48 48 48 49 50 50 51 51 49 46 45 46 47 49 49 49 49 49 48 49 53 57 61 65 67 69 69 66 60 55 55 58 60 60 61 60
33 34 35 36 38 39 41 42 43 45 46 47 48 48 50 52 53 54 55 56 57 60 63 65 68 69 71 72 72 74 76 78 80 81 81 80 79 76 73 70 68 66 63 60 57 55 53 51 49 48 47 46 47 47 48 49 50 50 50 48 46 45 44 45 47 47 46 46 45 45 46 50 55 60 63 66 68 68 66 65 62 57 55 55 57 60 60
36 37 38 39 40 41 43 44 46 47 49 50 50 51 53 55 56 57 58 58 60 63 66 68 71 72 73 74 75 76 78 80 82 83 82 80 78 76 72 70 68 66 63 60 58 55 53 50 49 47 46 45 45 46 46 47 49 49 48 48 46 44 43 44 45 44 43 43 42 42 44 47 52 57 61 63 64 65 65 64 60 55 53 55 56 57 57
39 40 41 41 42 44 45 47 48 50 51 52 53 54 55 57 59 60 61 62 63 65 68 72 74 75 75 76 77 79 81 83 84 84 83 80 78 75 72 70 67 66 63 60 58 55 52 50 48 46 44 43 44 44 45 46 47 47 47 47 46 43 42 42 43 41 40 40 39 39 41 45 47 50 54 57 58 61 63 61 54 49 50 55 55 53 53
41 42 43 43 45 46 47 49 51 52 53 54 55 57 58 59 61 62 64 65 66 67 70 74 76 77 77 78 80 82 84 85 86 85 84 81 78 75 72 69 67 65 63 60 57 54 51 49 47 45 44 43 43 44 44 45 46 45 45 45 44 42 40 39 39 38 38 38 37 36 38 43 45 45 47 49 51 57 64 63 57 52 53 56 55 52 49
43 44 45 46 47 48 50 51 53 54 55 56 57 59 60 61 63 64 66 68 69 70 72 75 77 79 79 80 82 84 86 86 87 85 84 82 78 75 72 69 66 64 62 60 57 53 51 49 47 45 44 43 42 42 41 42 42 42 42 41 40 39 38 36 36 37 36 36 36 37 38 41 44 45 48 49 47 53 63 67 65 62 60 59 57 54 50
45 46 47 48 49 50 52 53 55 56 57 58 59 60 62 63 65 67 69 70 72 74 74 75 77 79 81 82 84 86 87 87 87 86 84 82 78 74 71 69 66 64 62 59 56 53 51 48 46 45 44 41 39 37 36 36 37 37 36 34 35 35 35 34 35 36 35 34 34 35 37 39 41 43 49 53 51 51 60 69 73 73 70 66 62 59 56
47 48 49 50 51 52 54 55 56 57 58 60 61 62 64 65 67 69 71 72 74 76 77 77 78 79 82 84 86 87 88 88 87 86 84 81 77 73 71 68 66 64 61 59 56 53 50 48 46 44 42 38 33 31 30 29 30 30 29 29 31 33 33 33 33 34 34 32 32 34 35 36 38 40 44 49 52 53 58 66 72 75 75 71 67 67 67
49 49 50 52 53 54 55 56 57 59 60 61 63 64 65 67 69 71 73 75 76 78 78 79 80 81 83 86 87 88 89 88 88 86 83 80 76 73 70 67 65 63 61 58 54 52 49 46 44 42 38 33 28 25 24 23 23 24 25 27 30 32 31 31 32 32 33 32 32 33 34 34 36 38 39 42 46 51 56 63 68 71 73 73 70 70 72
50 51 52 54 55 56 57 58 59 60 61 63 64 66 67 69 71 73 75 77 78 79 79 80 81 83 85 87 88 89 89 89 88 86 82 79 76 72 69 66 63 61 58 55 52 49 46 44 41 38 33 28 24 21 19 19 20 22 23 25 27 28 28 29 30 31 31 31 31 33 34 35 35 36 37 39 41 45 51 57 63 67 70 72 70 67 69
52 53 54 55 56 57 58 59 60 61 63 64 66 68 70 71 73 75 77 78 79 80 80 81 83 85 87 88 89 90 90 90 88 85 81 77 74 71 67 64 60 58 54 51 48 45 43 41 38 34 29 25 21 19 17 17 18 19 21 22 24 25 27 27 29 30 30 30 32 33 35 36 36 36 37 38 39 42 45 50 56 62 66 68 67 64 64
54 55 56 57 57 58 59 60 61 63 64 66 68 70 72 73 75 76 78 79 80 80 81 83 85 87 88 89 90 91 91 90 87 83 80 76 73 69 65 61 57 54 50 47 45 42 39 37 35 31 27 23 20 18 17 17 17 18 19 21 22 24 25 27 28 29 30 31 32 34 35 36 37 37 38 38 39 41 43 46 50 56 63 67 67 64 62
56 56 57 58 59 60 61 62 63 65 66 68 70 72 73 75 76 77 78 79 80 81 83 85 87 88 89 90 91 91 90 88 85 81 78 75 71 66 62 56 52 49 46 43 41 38 36 35 32 28 24 22 20 19 18 18 18 18 19 20 22 24 25 26 28 30 31 32 33 34 35 36 37 38 38 39 40 41 43 45 47 51 57 64 68 67 64
58 58 59 60 61 62 63 64 66 67 69 70 71 73 74 76 76 77 78 79 80 82 84 86 88 89 90 91 91 91 89 86 83 79 76 73 68 63 57 51 46 43 41 39 37 34 33 31 29 26 23 21 19 19 19 19 19 20 21 22 23 24 25 27 28 30 31 33 34 34 34 35 36 38 38 39 39 41 43 45 47 49 52 58 65 69 68
60 60 61 63 63 64 65 67 68 69 70 71 72 73 75 76 77 78 78 80 81 83 85 87 88 90 91 91 91 91 88 84 80 77 74 69 63 57 52 46 41 39 37 35 33 31 30 28 26 24 22 21 19 19 20 20 19 20 22 23 23 24 25 26 27 29 30 32 34 34 34 34 35 37 38 39 39 41 43 44 46 48 51 53 59 67 71
62 63 64 65 66 67 68 68 69 70 71 72 72 74 75 76 77 78 79 81 83 85 87 88 90 91 91 92 91 89 85 81 78 74 68 62 56 50 46 42 38 35 33 32 30 29 28 26 24 22 21 21 20 20 20 20 19 19 21 22 23 23 24 24 25 27 29 31 33 34 34 34 35 36 38 39 39 40 42 45 46 47 50 52 55 63 70
64 65 66 66 67 68 69 69 70 71 71 72 72 74 75 76 77 79 80 82 84 86 88 89 91 91 91 92 90 87 82 78 74 68 61 55 50 45 40 37 34 32 30 28 27 26 25 24 23 22 21 20 20 21 20 20 19 18 18 19 20 21 21 22 24 25 27 29 30 32 33 34 35 35 36 38 39 40 41 44 46 47 49 52 53 58 67
66 66 67 67 68 69 69 70 71 71 71 72 73 74 75 76 78 79 81 83 85 87 89 90 91 91 92 91 88 84 79 74 68 61 54 49 45 40 36 33 31 29 27 26 25 24 23 22 21 21 20 19 19 20 20 19 19 18 17 16 17 18 19 20 22 23 24 25 26 28 30 32 33 34 35 37 38 39 41 43 45 46 48 51 52 54 61
67 67 67 68 69 69 69 70 70 71 71 72 73 74 75 77 79 80 83 84 86 88 90 90 91 91 91 89 85 80 76 69 62 55 49 45 41 37 33 31 29 27 25 24 23 22 21 20 20 19 19 19 19 19 18 18 17 16 15 15 15 17 18 18 20 21 21 21 21 24 27 30 31 32 33 35 37 39 40 41 44 46 48 50 51 51 56
67 67 68 68 68 68 69 69 70 70 71 72 73 75 77 78 80 82 84 86 88 89 90 90 91 91 90 86 81 77 71 63 56 50 46 42 37 34 31 28 27 26 24 23 21 20 19 18 18 18 18 18 18 17 17 17 16 15 14 14 15 16 16 17 18 19 18 17 18 21 24 27 29 29 30 32 34 37 39 40 42 46 49 50 50 50 53
67 67 68 68 68 68 68 69 70 70 71 73 74 76 78 80 82 84 85 87 88 89 90 90 91 90 87 82 78 73 65 57 52 47 43 39 35 31 28 27 25 24 22 21 20 19 18 17 17 17 17 17 16 16 16 15 14 14 14 14 14 14 14 14 15 16 16 16 17 19 21 24 26 26 28 29 31 34 37 39 41 45 48 50 50 50 51
66 67 67 67 67 67 68 69 70 71 72 74 76 78 80 82 84 85 87 88 88 89 89 90 90 87 83 79 75 68 60 53 48 44 40 36 32 29 26 25 24 22 21 20 19 18 17 16 16 15 15 15 14 14 14 14 12 11 11 12 11 11 10 10 11 13 14 15 16 18 20 21 23 24 25 27 29 31 34 37 40 43 47 50 50 50 51
66 66 66 66 66 67 68 69 70 72 74 75 77 79 81 83 85 86 88 88 88 88 89 89 87 83 78 75 69 63 56 50 45 41 37 33 29 26 24 23 22 20 19 18 17 17 16 16 15 14 14 13 13 12 12 11 9 7 7 7 7 7 7 8 9 11 13 14 16 17 18 19 20 21 22 25 27 28 31 34 38 41 44 48 50 50 51
65 65 66 66 66 67 69 70 72 73 75 77 79 81 82 84 86 87 88 88 88 89 89 88 83 79 75 71 64 57 52 48 43 38 34 30 27 25 23 21 19 18 17 16 16 16 15 14 13 13 13 13 12 11 9 7 5 4 3 3 4 5 6 6 7 9 10 12 14 15 15 16 17 18 19 21 24 26 28 31 34 37 41 45 48 49 49
65 65 66 66 67 69 70 72 74 75 76 78 80 82 83 85 86 87 87 88 89 89 88 84 79 75 71 66 59 53 48 45 40 36 31 28 26 23 21 19 18 16 15 15 15 15 14 13 12 13 13 12 11 8 4 2 2 4 5 5 4 3 4 4 4 5 8 10 12 12 12 12 14 14 15 17 19 22 24 27 30 33 36 41 44 47 48
65 66 66 67 68 70 72 74 76 77 78 80 81 82 84 85 86 86 87 88 89 88 85 80 76 72 68 61 55 49 45 41 37 33 29 26 24 21 20 18 17 15 14 14 14 14 13 12 12 12 12 11 8 4 3 3 4 5 5 3 3 4 4 4 5 7 9 11 11 10 10 10 10 11 11 13 15 17 20 23 26 28 31 35 38 42 44
65 66 67 69 71 73 74 76 77 78 79 80 82 83 84 85 85 86 86 87 88 86 81 76 72 68 62 56 51 47 43 38 34 31 27 24 22 20 19 17 16 15 14 14 14 13 12 11 11 11 11 9 5 4 5 5 5 4 2 1 4 4 4 6 9 12 14 15 13 11 10 8 8 8 8 9 12 14 17 20 21 23 27 30 33 35 39
67 68 69 71 73 75 76 77 78 79 80 81 82 83 84 84 85 85 86 87 85 81 77 73 69 64 57 51 47 44 40 35 31 28 25 23 21 20 19 17 16 15 13 13 12 12 11 10 10 11 11 8 6 6 7 7 5 3 1 2 3 4 6 9 12 14 15 16 16 15 14 11 8 6 6 7 10 13 16 18 18 20 24 28 30 33 36
69 70 72 73 75 77 78 79 79 79 80 81 82 83 83 83 84 85 86 85 82 77 73 70 65 58 52 47 44 41 37 33 30 27 24 22 20 19 18 16 15 13 12 12 11 11 11 10 10 11 11 9 7 8 9 8 5 3 2 3 3 4 7 10 12 13 14 15 16 16 14 12 8 5 2 3 5 8 11 15 17 18 22 25 28 32 35
71 73 74 76 77 78 79 79 79 80 81 82 82 82 82 83 84 84 84 82 77 72 69 66 60 53 47 45 42 38 35 32 29 26 23 21 19 17 16 15 13 11 11 11 11 11 11 11 11 12 12 10 9 9 9 8 5 3 3 4 3 3 6 9 10 11 12 12 13 13 12 10 9 6 3 1 4 5 7 9 12 16 19 23 27 30 33
73 75 76 77 78 78 79 80 80 80 81 81 81 81 82 83 83 83 81 77 73 69 66 62 54 48 44 42 40 37 33 30 27 24 22 19 17 16 15 14 12 11 11 12 12 12 11 11 12 13 13 11 10 10 9 8 6 5 5 5 5 5 6 7 7 8 9 10 11 10 9 9 8 6 4 3 2 4 5 6 8 11 15 19 23 27 29
75 77 77 77 78 79 79 80 80 81 80 80 80 81 82 82 82 79 76 73 69 66 62 56 50 44 42 40 38 35 31 28 25 22 20 18 16 15 13 12 11 11 12 13 13 13 12 12 13 14 14 12 12 12 10 9 9 8 7 8 7 7 7 6 5 6 8 10 9 8 9 10 10 9 6 5 3 2 3 5 7 9 11 13 16 20 23
76 77 77 77 78 79 79 80 80 80 80 79 79 81 81 81 78 75 72 69 66 63 57 50 45 42 40 38 35 33 29 25 22 20 18 16 15 14 13 12 11 12 13 14 14 14 12 12 13 14 14 13 13 13 11 10 11 11 10 9 8 7 7 6 5 5 8 9 8 8 10 12 13 11 8 5 4 3 2 3 4 5 7 9 11 13 16
Wind_Direction
151 147 141 134 126 114 99 83 69 58 49 43 38 33 29 28 27 26 26 26 26 25 23 22 21 21 20 17 14 12 9 6 2 357 351 343 333 322 309 297 288 283 281 279 278 276 275 274 272 271 270 268 266 265 265 264 263 263 263 263 263 263 263 264 263 261 260 260 259 258 258 257 257 258 257 252 251 254 256 258 262 269 279 287 289 289 292
152 147 142 135 125 111 95 77 62 51 43 36 32 27 24 22 22 20 19 19 19 19 17 16 15 15 15 14 12 10 7 4 2 358 354 349 343 335 324 312 300 289 283 280 278 276 275 274 273 272 272 272 270 268 267 266 265 264 262 262 262 262 262 263 263 262 261 261 259 257 257 257 258 259 259 255 251 250 250 251 255 260 266 273 277 277 276
154 151 146 139 130 116 96 73 54 43 35 30 26 22 18 16 15 15 14 13 13 12 11 11 10 10 10 9 7 5 4 2 360 356 353 351 346 341 334 325 314 300 290 284 280 277 275 273 272 272 272 272 273 272 271 269 268 267 265 263 261 261 261 262 262 262 261 261 261 260 258 258 258 259 259 257 254 251 248 244 246 251 253 257 263 266 263
160 157 154 150 142 130 106 76 54 38 27 21 18 15 12 9 8 7 8 8 8 6 5 4 5 5 5 4 2 360 358 357 357 354 351 349 346 341 336 330 322 313 302 292 286 281 278 275 273 272 271 271 272 272 273 272 270 268 267 266 264 262 262 262 262 262 260 260 261 261 260 259 259 259 258 257 255 253 249 244 241 244 246 248 255 261 262
168 167 165 163 158 148 116 60 40 27 19 12 7 4 3 1 360 359 360 0 0 360 359 358 358 359 359 360 359 356 354 352 351 351 349 347 344 339 335 331 326 318 311 302 294 288 284 281 278 275 273 272 271 271 271 272 272 269 267 266 265 263 262 262 262 263 261 260 259 260 260 259 259 259 258 257 255 253 251 246 241 240 242 244 248 256 262
178 179 179 178 176 179 189 346 352 354 356 357 356 355 354 353 352 352 352 352 352 353 352 351 351 352 353 353 353 353 351 349 347 346 346 345 342 337 333 331 326 320 313 307 298 291 288 285 282 280 278 276 274 272 271 271 272 271 268 265 264 263 262 261 261 261 261 260 259 258 258 258 258 257 256 255 254 252 251 248 243 239 240 242 243 248 255
189 193 198 202 207 220 252 301 326 333 337 341 343 344 346 346 345 345 345 346 345 345 345 345 345 346 346 346 347 347 347 346 344 343 343 341 339 336 332 329 326 320 314 308 301 293 288 284 281 280 279 278 278 276 274 272 271 271 269 267 264 262 260 260 259 259 260 259 257 256 255 256 257 256 254 253 252 251 249 248 245 240 239 240 240 242 247
200 207 216 227 239 254 275 293 307 318 325 331 333 335 337 338 339 339 339 338 339 339 339 339 340 340 341 341 342 342 342 343 342 340 340 339 337 334 331 329 325 320 314 309 301 295 290 286 283 281 279 278 278 278 277 274 271 270 269 267 265 262 260 258 258 258 258 258 257 255 253 252 253 254 253 252 251 249 248 248 246 244 241 240 238 239 241
211 219 230 243 257 272 286 297 304 311 317 322 326 329 331 332 333 333 333 333 333 334 334 335 336 336 337 338 338 338 339 339 340 339 338 338 335 333 331 328 325 320 314 308 302 297 293 288 285 283 281 278 276 276 276 275 273 270 268 267 266 264 262 259 257 256 257 258 257 256 254 251 250 250 251 251 250 249 248 247 245 244 243 241 239 239 239
221 229 240 253 266 278 288 297 303 308 313 317 320 323 325 327 327 328 328 328 328 330 331 331 332 332 333 334 335 336 336 336 337 337 336 336 334 332 330 328 324 320 315 310 306 301 294 288 284 282 281 279 278 276 274 273 273 272 270 267 266 265 263 261 258 254 255 257 256 255 254 252 250 248 248 249 249 248 247 245 243 242 242 241 240 240 240
232 241 251 262 272 282 290 296 301 306 310 314 317 319 321 322 322 322 322 323 325 327 329 330 330 331 331 332 333 333 334 334 334 334 334 334 333 331 329 327 323 320 317 313 309 303 295 288 283 281 279 279 278 277 275 273 272 271 271 270 267 265 262 261 259 256 252 254 255 253 251 251 251 249 247 246 247 247 246 244 243 241 241 240 240 240 240
244 253 262 271 278 285 291 295 300 304 307 311 314 316 318 318 318 318 319 321 323 326 328 329 329 330 330 331 331 331 332 332 332 332 332 332 332 331 329 326 322 319 317 315 311 305 298 291 285 281 278 276 275 275 275 274 272 270 269 269 269 267 265 261 260 257 254 252 252 250 249 249 249 249 247 245 245 244 243 242 242 240 239 239 239 239 238
255 263 270 276 281 286 291 295 299 303 306 309 311 313 314 315 315 315 317 320 323 325 327 328 328 329 329 329 330 330 330 330 331 331 331 331 331 330 329 325 322 319 317 315 311 306 301 295 289 284 279 275 273 272 271 272 272 270 269 268 268 268 268 266 262 257 255 253 252 250 248 247 246 246 246 245 243 242 241 240 239 239 239 238 238 238 237
261 268 274 278 282 286 291 295 299 303 305 308 309 311 313 313 315 316 318 320 323 325 326 327 327 327 328 328 328 328 329 329 329 330 330 330 329 329 327 325 322 319 317 315 311 307 302 298 293 288 283 278 274 271 269 268 268 269 269 268 267 266 267 267 265 261 255 253 253 250 247 245 243 242 243 243 243 241 240 238 236 237 238 238 237 237 237
263 269 274 279 284 287 291 295 299 302 305 307 308 310 312 314 316 319 321 322 323 324 325 325 325 326 327 327 327 327 328 328 328 329 329 329 328 327 326 323 321 319 317 314 310 307 303 299 295 290 286 282 278 273 270 267 266 266 266 267 266 265 265 265 266 265 259 253 252 251 248 245 243 241 241 241 242 241 239 237 235 234 235 237 237 236 236
264 269 275 280 284 288 291 295 298 301 303 306 308 310 313 315 318 320 321 322 323 324 324 324 324 325 326 326 326 326 327 326 327 328 328 328 327 326 324 322 320 318 316 313 310 307 303 300 296 291 288 285 281 277 273 269 266 264 264 265 265 265 264 263 264 264 262 256 252 250 248 245 241 239 237 237 239 241 240 237 235 233 233 235 236 236 235
266 271 276 281 285 289 292 295 298 301 303 305 308 311 314 317 320 321 321 321 322 323 323 323 323 324 325 326 326 326 326 326 327 328 328 327 326 325 323 321 319 317 315 312 309 306 303 299 295 292 288 285 282 280 276 272 269 265 262 262 263 263 263 263 262 262 262 259 253 249 246 243 239 237 236 233 232 235 238 237 234 232 232 233 234 235 234
268 272 277 281 285 289 293 296 299 301 303 305 308 311 315 318 320 320 320 321 322 322 322 322 323 324 325 325 325 325 325 326 327 328 328 327 325 324 322 321 319 317 314 312 309 306 303 300 296 292 288 284 282 279 277 274 271 268 265 262 261 261 262 262 262 261 261 259 254 248 244 242 239 236 235 234 230 229 232 236 235 233 231 231 231 233 233
270 274 278 282 286 290 294 297 299 301 303 305 308 311 315 317 319 319 320 321 321 321 321 322 323 324 325 325 325 325 325 326 327 327 327 326 324 323 322 320 319 317 315 313 310 307 304 301 297 293 289 284 281 278 276 274 272 270 268 265 262 261 261 262 262 261 260 257 253 247 242 239 237 234 233 232 231 229 227 228 232 235 234 231 229 230 231
272 275 279 283 286 290 294 296 299 301 303 305 308 311 315 316 317 318 319 319 320 320 321 322 323 323 324 324 324 324 325 326 327 327 326 325 324 323 322 320 318 317 315 313 311 308 305 302 298 293 289 285 281 278 275 273 271 269 268 267 265 262 261 262 262 261 258 254 250 245 240 237 236 234 231 230 230 230 228 223 222 229 233 231 228 228 229
274 277 281 284 287 290 293 296 298 301 303 305 308 311 313 314 315 317 317 318 319 320 321 321 322 323 323 323 323 324 325 326 326 326 325 324 323 323 322 320 319 317 316 314 312 309 306 303 298 294 289 285 281 278 274 272 270 268 268 267 266 264 263 263 261 258 255 251 247 243 239 235 234 233 232 230 228 229 230 227 223 225 230 231 227 225 225
275 279 282 285 288 290 293 296 298 300 302 304 307 310 312 313 314 315 316 317 319 320 321 321 321 322 322 322 323 324 325 325 325 325 325 324 324 323 322 321 319 317 316 314 313 310 307 304 300 296 292 287 282 277 274 271 269 268 267 267 266 265 264 262 259 256 252 249 246 242 238 234 232 232 232 231 228 226 227 228 226 226 232 235 233 228 226
276 279 282 285 288 291 294 296 298 299 301 303 306 308 310 311 313 314 316 317 319 320 320 321 321 321 322 323 324 324 325 325 324 324 325 324 324 323 322 321 319 318 316 315 313 312 309 305 302 298 294 289 284 279 274 270 268 266 266 265 265 264 262 259 257 254 250 246 243 240 237 232 229 230 231 231 230 226 223 222 219 219 229 232 228 226 228
277 280 283 286 289 291 293 295 297 298 300 303 305 307 309 310 312 314 315 317 318 319 320 320 320 321 322 323 323 324 324 324 324 324 324 324 324 323 322 321 319 318 316 315 314 313 310 308 305 302 298 294 288 282 276 271 268 265 264 263 262 261 258 256 253 250 247 244 240 236 235 231 227 225 224 226 226 224 222 217 210 211 224 227 218 214 219
279 282 284 287 289 291 293 294 296 298 300 303 305 307 308 310 312 313 315 316 317 318 319 319 320 320 322 322 323 323 324 324 324 324 324 324 323 323 322 321 319 318 316 315 315 314 313 311 309 306 303 299 293 286 278 272 268 264 262 261 260 258 255 251 249 246 244 243 240 235 233 232 228 223 220 221 223 221 219 216 209 208 217 220 211 205 207
280 282 284 287 289 290 292 294 296 298 301 303 305 307 309 310 312 313 314 316 317 318 318 319 319 320 321 322 323 323 323 323 323 324 324 323 323 322 322 321 319 318 316 316 316 315 315 313 312 310 308 304 297 288 280 272 267 263 261 258 256 254 250 246 245 245 243 242 241 240 237 234 231 226 221 223 225 222 218 217 215 213 216 218 212 205 204
280 283 285 287 288 290 292 294 297 299 301 303 305 307 309 310 312 313 314 315 316 317 318 319 320 320 321 322 322 322 323 323 323 324 323 323 322 322 321 320 319 317 316 316 316 316 315 314 314 314 312 307 300 291 281 272 266 261 258 253 249 248 246 243 242 243 244 242 240 240 239 235 233 230 225 224 226 225 220 218 219 220 222 222 218 210 207
281 283 285 287 288 290 292 295 298 300 302 304 306 307 309 310 311 313 314 315 316 317 318 319 320 320 321 321 322 322 322 323 323 323 323 322 322 321 320 319 318 317 316 316 316 315 315 315 315 315 313 309 303 294 283 273 264 257 250 246 244 245 244 243 242 242 242 242 241 240 239 236 234 233 231 227 226 226 223 221 221 223 223 224 222 217 213
282 283 285 287 289 291 294 296 299 300 302 304 306 307 308 310 311 312 314 315 316 317 318 319 319 320 321 321 322 322 322 323 323 323 322 321 321 320 319 318 316 315 315 314 315 315 314 314 315 315 313 310 304 296 285 272 262 254 248 246 246 247 247 245 246 246 245 244 244 243 242 240 237 235 234 231 228 227 226 224 223 224 223 222 223 221 219
281 283 285 288 290 293 295 297 299 301 302 304 305 307 308 310 311 312 313 314 316 317 318 319 319 320 321 321 321 322 322 323 323 322 321 320 319 318 317 316 315 314 313 313 313 313 312 313 314 314 312 308 304 297 287 275 265 258 254 250 249 249 249 248 248 249 249 248 246 245 244 242 239 237 235 234 232 230 229 226 225 224 222 219 218 218 218
282 284 286 289 291 293 295 297 298 300 302 303 305 307 308 309 311 312 313 315 316 317 318 319 319 320 321 321 321 322 322 322 322 321 320 319 318 316 315 314 313 312 311 311 311 311 310 311 312 311 308 306 303 298 290 282 274 266 260 256 254 253 253 253 252 252 253 251 249 248 246 244 242 238 235 234 234 234 232 230 228 225 222 219 215 213 213
282 285 287 289 291 293 295 296 298 300 301 303 305 306 308 309 310 312 313 314 315 316 318 319 319 320 320 321 321 322 322 322 321 320 319 317 316 315 314 313 311 310 309 309 309 309 309 309 310 308 305 304 301 297 292 285 280 274 268 263 261 259 258 257 257 256 256 255 253 250 249 247 245 242 239 235 234 235 235 233 231 228 225 222 218 213 210
282 284 286 288 290 292 294 296 297 299 301 303 304 306 308 309 310 311 313 314 315 316 318 319 319 319 320 320 321 321 321 321 320 319 317 316 315 313 312 311 309 308 307 307 306 307 307 307 306 305 304 302 300 295 291 285 281 277 273 268 265 263 262 260 259 258 258 258 257 254 250 248 246 244 242 238 235 234 235 235 233 230 228 225 221 215 210
282 284 286 288 290 292 293 295 297 299 301 303 304 306 307 309 310 311 313 314 315 317 318 318 319 319 319 320 321 321 321 321 319 318 316 315 314 312 311 309 308 306 305 305 304 304 303 302 302 301 302 301 297 292 289 286 283 279 277 273 269 267 265 264 263 262 261 260 259 257 254 250 247 245 243 240 236 234 235 235 234 231 229 226 223 218 212
282 284 286 288 290 291 293 295 297 299 301 303 304 306 307 308 310 311 313 314 316 317 318 318 318 319 320 320 321 321 321 320 319 318 316 315 313 312 310 308 307 305 303 303 302 302 301 301 300 300 300 300 298 294 290 287 285 281 278 277 275 272 269 267 265 263 261 260 259 258 256 252 248 245 243 241 237 234 234 234 234 232 230 227 224 220 215
282 284 286 288 289 291 294 296 297 299 301 303 304 306 307 309 310 312 314 315 316 317 317 317 318 319 320 321 321 321 321 320 319 317 316 314 313 311 309 307 305 303 302 301 300 299 298 298 298 298 300 300 299 297 294 291 289 286 282 279 276 273 270 266 262 260 259 259 259 259 258 255 251 246 242 240 237 235 233 233 233 232 230 228 225 221 217
282 284 286 288 289 292 294 296 297 299 301 303 304 306 307 309 311 313 314 315 316 316 316 317 318 319 320 321 321 321 321 320 319 317 316 314 312 310 308 305 302 300 299 299 298 296 294 294 294 295 298 299 298 296 294 292 292 291 288 284 280 275 270 268 265 262 260 259 259 258 258 256 253 248 243 239 236 233 231 231 231 231 230 229 226 223 219
282 284 286 288 290 292 294 296 298 299 301 303 304 306 308 310 311 313 314 314 315 316 316 318 319 320 321 321 321 321 321 320 318 317 315 313 311 309 307 303 300 299 298 296 295 294 293 293 294 296 298 299 297 295 294 293 293 292 290 286 282 277 274 272 271 269 265 263 261 260 258 256 254 250 245 240 236 233 230 229 229 229 229 229 227 224 221
282 284 286 288 290 292 294 296 298 299 301 303 305 307 309 310 312 313 313 314 315 316 317 319 320 321 322 322 321 321 320 319 318 316 315 313 310 308 305 302 299 297 296 295 294 293 292 292 293 295 298 298 296 293 292 291 291 290 287 283 281 279 279 278 278 278 277 272 266 262 261 258 255 252 248 242 237 233 230 227 226 226 228 228 227 225 222
282 284 286 289 291 293 295 296 298 300 302 304 306 308 309 310 311 312 313 314 315 316 318 320 321 322 322 322 321 321 320 319 317 316 314 312 309 307 304 301 298 296 295 292 290 290 290 290 291 293 295 294 291 288 288 290 293 292 288 286 287 288 288 287 283 279 278 275 270 266 265 263 260 255 250 245 239 234 230 227 224 223 225 226 226 225 223
282 285 287 289 291 293 295 297 299 301 303 305 307 308 309 310 311 312 313 314 316 317 319 320 321 322 322 321 321 320 319 318 316 315 313 311 308 306 303 300 297 295 292 289 288 287 288 289 292 293 292 290 287 286 290 295 298 296 292 294 297 298 293 288 283 278 277 276 276 274 272 271 267 261 254 247 241 234 230 226 224 222 222 223 224 224 223
283 285 287 290 292 294 296 298 299 301 303 305 307 308 309 310 311 312 313 315 316 318 320 321 321 322 321 321 320 320 318 316 315 314 312 309 307 303 300 297 295 293 290 287 287 286 287 290 293 293 288 282 280 284 292 300 302 302 304 306 303 296 288 286 290 291 289 287 284 281 278 277 274 267 259 250 242 234 229 225 223 221 220 221 222 222 222
283 286 288 290 292 294 296 298 300 302 304 306 307 308 309 310 311 313 314 315 317 319 320 321 321 321 321 320 320 319 317 315 314 313 310 307 304 300 297 294 292 289 287 285 285 286 288 292 293 287 279 275 279 286 293 301 300 288 275 272 281 293 303 306 307 308 308 306 300 292 286 283 281 274 263 251 242 234 228 223 221 219 218 218 220 221 221
284 286 289 291 293 295 297 298 300 302 304 306 307 308 309 310 312 313 314 316 318 319 321 321 321 321 320 319 319 317 316 314 313 311 309 305 301 298 295 291 287 283 280 280 281 284 287 290 287 279 273 275 281 285 284 277 259 248 244 253 289 335 359 355 340 338 341 336 325 312 303 297 292 282 268 253 241 232 225 220 218 216 216 216 218 219 219
285 287 289 291 293 295 296 298 300 302 304 305 306 308 309 311 312 313 315 317 318 320 320 320 320 320 320 318 317 316 315 313 311 310 307 302 298 295 291 287 281 276 272 273 277 281 286 287 281 274 273 275 276 260 212 212 239 252 260 294 16 51 59 37 19 24 26 16 358 339 323 313 303 291 273 253 237 226 218 213 212 211 211 213 215 217 217
285 287 290 292 293 295 296 298 300 302 304 305 306 308 309 311 312 314 315 317 318 319 320 320 320 320 319 317 315 315 314 312 310 308 304 300 296 292 288 282 275 270 268 271 277 282 286 284 275 269 270 268 251 210 207 226 239 250 264 62 82 88 74 50 45 47 44 35 24 11 354 336 320 305 280 246 223 209 202 203 206 206 204 205 209 213 214
286 288 290 291 293 294 296 298 300 302 304 305 307 308 310 311 313 314 316 317 318 319 319 319 319 318 317 315 314 313 313 311 308 305 302 298 295 291 286 280 274 270 269 274 280 283 282 276 266 260 260 254 226 210 221 230 233 231 200 147 127 101 75 65 61 57 51 43 35 26 13 357 337 318 285 245 221 204 194 195 200 202 199 199 204 208 210
286 287 289 291 292 294 296 298 300 302 304 305 307 309 310 311 313 315 316 316 317 318 318 318 318 317 315 313 313 312 311 310 307 304 302 298 293 289 285 279 273 270 270 274 279 280 275 267 257 253 252 244 226 221 227 228 221 210 192 182 164 111 90 81 70 60 54 48 42 34 23 9 357 346 317 233 208 196 191 194 200 203 201 199 201 203 205
285 287 289 291 293 294 296 298 300 302 304 306 308 309 310 312 313 315 315 315 316 317 317 317 316 315 313 312 311 310 310 308 305 303 301 297 292 287 281 273 267 265 264 267 270 269 264 258 250 248 247 240 227 225 229 225 212 190 175 178 170 111 92 86 75 65 59 55 50 45 36 28 22 18 22 105 146 157 170 184 197 203 203 200 199 199 201
285 287 289 291 293 295 297 299 301 303 305 306 308 309 311 312 313 314 314 315 316 316 316 315 314 313 311 310 309 309 308 306 303 300 298 294 289 282 275 267 261 258 258 262 264 263 258 251 244 242 242 237 228 226 227 216 198 186 178 170 149 103 87 88 87 83 80 73 63 51 40 35 36 35 33 52 111 153 167 177 188 196 198 198 199 200 202
285 287 289 291 293 295 297 299 301 303 305 307 308 309 311 312 313 313 313 314 315 316 315 313 312 311 310 309 308 307 306 304 300 298 295 291 286 279 271 263 256 253 255 260 264 262 257 247 239 238 239 234 227 227 226 209 192 190 189 178 153 119 101 100 104 98 90 83 71 52 35 28 28 28 28 35 55 111 160 177 186 191 193 195 198 202 205
285 287 289 291 294 296 298 300 302 303 305 307 308 309 310 311 312 312 312 313 314 314 313 311 309 309 308 307 306 305 304 302 299 297 294 289 283 276 267 258 251 249 252 257 260 258 253 242 235 235 237 232 227 229 229 213 195 193 196 191 170 135 110 105 109 105 97 89 75 51 37 33 29 25 25 30 43 69 115 157 173 176 182 189 194 199 205
Height
10875 10875 10876 10877 10877 10877 10877 10877 10877 10876 10876 10875 10875 10874 10873 10873 10872 10871 10870 10869 10868 10867 10866 10864 10863 10862 10860 10859 10857 10856 10854 10853 10852 10851 10849 10849 10848 10846 10845 10844 10842 10840 10838 10836 10835 10835 10834 10834 10832 10831 10831 10831 10831 10831 10831 10832 10833 10833 10833 10833 10833 10834 10835 10835 10836 10837 10837 10837 10839 10839 10840 10842 10843 10844 10847 10849 10851 10852 10853 10855 10854 10853 10852 10852 10852 10853 10854
10874 10875 10875 10876 10876 10876 10876 10876 10876 10875 10875 10874 10874 10873 10872 10872 10871 10870 10869 10869 10868 10867 10865 10864 10863 10861 10860 10858 10856 10855 10853 10852 10851 10849 10848 10847 10846 10845 10844 10842 10841 10838 10836 10834 10832 10831 10831 10830 10829 10828 10827 10826 10826 10826 10827 10827 10828 10828 10828 10829 10829 10830 10831 10831 10831 10832 10832 10832 10833 10835 10836 10837 10839 10842 10844 10846 10847 10848 10850 10851 10852 10851 10851 10850 10850 10851 10852
10873 10874 10874 10875 10875 10875 10875 10875 10875 10874 10874 10874 10873 10872 10872 10871 10870 10870 10869 10868 10867 10865 10864 10863 10862 10861 10859 10857 10855 10854 10852 10851 10849 10847 10846 10845 10843 10842 10841 10840 10839 10837 10834 10832 10829 10828 10827 10827 10825 10824 10823 10822 10822 10821 10821 10821 10822 10822 10822 10823 10824 10826 10827 10826 10826 10827 10827 10827 10827 10830 10832 10833 10835 10838 10841 10843 10844 10845 10846 10848 10849 10849 10849 10848 10848 10848 10849
10872 10873 10874 10874 10874 10874 10874 10874 10874 10873 10873 10873 10872 10871 10871 10870 10869 10868 10867 10866 10865 10864 10863 10862 10861 10860 10858 10856 10854 10852 10850 10849 10847 10845 10843 10842 10840 10838 10837 10835 10834 10833 10831 10828 10826 10824 10822 10822 10821 10820 10819 10818 10817 10816 10815 10815 10815 10816 10816 10816 10818 10820 10821 10821 10821 10821 10822 10822 10822 10824 10828 10829 10830 10832 10835 10838 10840 10841 10843 10844 10845 10846 10846 10846 10846 10846 10846
10871 10872 10872 10873 10873 10873 10873 10873 10873 10872 10872 10871 10871 10870 10869 10868 10867 10867 10866 10865 10864 10863 10861 10860 10859 10858 10856 10855 10853 10851 10849 10846 10844 10843 10841 10839 10837 10835 10833 10831 10829 10827 10825 10823 10821 10819 10817 10816 10815 10813 10813 10812 10811 10811 10810 10809 10808 10808 10809 10809 10810 10813 10814 10815 10815 10814 10815 10817 10818 10820 10822 10823 10825 10827 10830 10832 10834 10836 10839 10840 10841 10842 10842 10843 10844 10843 10843
10870 10871 10871 10871 10872 10872 10872 10871 10871 10871 10871 10870 10870 10869 10868 10867 10866 10865 10864 10863 10862 10860 10859 10858 10856 10856 10854 10853 10852 10850 10848 10845 10842 10839 10838 10836 10834 10832 10829 10827 10824 10822 10820 10818 10816 10813 10811 10809 10807 10806 10805 10804 10804 10804 10804 10803 10801 10800 10801 10802 10803 10805 10806 10807 10808 10807 10807 10810 10812 10814 10816 10817 10819 10821 10823 10826 10828 10830 10833 10835 10837 10838 10838 10839 10841 10841 10840
10869 10869 10869 10870 10870 10870 10870 10870 10870 10869 10869 10868 10868 10867 10866 10865 10864 10863 10862 10861 10860 10858 10857 10856 10854 10853 10852 10851 10850 10848 10846 10844 10841 10838 10835 10832 10830 10828 10826 10823 10821 10818 10815 10813 10810 10807 10805 10803 10801 10800 10799 10797 10796 10796 10796 10796 10795 10792 10793 10793 10795 10797 10799 10799 10800 10799 10799 10801 10804 10807 10810 10811 10812 10813 10815 10819 10822 10824 10826 10829 10832 10834 10834 10835 10837 10838 10838
10867 10867 10868 10868 10868 10868 10868 10868 10868 10868 10867 10867 10866 10865 10865 10864 10863 10862 10860 10859 10858 10856 10854 10853 10851 10849 10848 10847 10845 10844 10843 10841 10838 10835 10833 10830 10826 10823 10821 10818 10816 10813 10810 10807 10804 10801 10798 10796 10793 10793 10793 10791 10789 10788 10787 10787 10787 10786 10785 10785 10786 10789 10791 10792 10793 10793 10792 10792 10795 10797 10801 10804 10805 10805 10807 10811 10814 10817 10820 10823 10826 10828 10829 10831 10832 10832 10834
10865 10866 10866 10866 10866 10866 10866 10866 10866 10866 10865 10865 10864 10863 10862 10861 10860 10859 10858 10857 10855 10854 10852 10850 10848 10846 10843 10841 10840 10838 10837 10835 10833 10830 10827 10825 10822 10819 10816 10813 10810 10808 10804 10801 10798 10795 10792 10789 10786 10784 10784 10783 10782 10781 10780 10777 10778 10778 10777 10777 10778 10780 10783 10784 10785 10787 10786 10784 10786 10788 10791 10795 10797 10796 10798 10802 10806 10809 10813 10817 10820 10822 10824 10826 10827 10827 10830
10864 10864 10864 10864 10864 10864 10864 10864 10863 10863 10863 10862 10862 10861 10860 10859 10858 10857 10856 10854 10853 10851 10849 10847 10845 10843 10840 10838 10835 10833 10831 10829 10827 10825 10822 10819 10816 10812 10810 10807 10805 10802 10799 10795 10792 10789 10786 10782 10779 10776 10774 10773 10772 10773 10772 10770 10769 10769 10768 10769 10771 10771 10774 10775 10775 10780 10781 10776 10776 10780 10782 10784 10786 10788 10791 10795 10796 10800 10805 10809 10813 10816 10818 10820 10822 10823 10825
10861 10862 10862 10862 10862 10862 10862 10861 10861 10861 10860 10859 10859 10858 10857 10856 10855 10854 10853 10852 10850 10848 10846 10844 10842 10839 10837 10834 10831 10829 10826 10823 10821 10819 10817 10814 10811 10806 10802 10799 10796 10793 10791 10788 10785 10783 10779 10775 10772 10769 10767 10765 10763 10762 10762 10762 10762 10761 10759 10759 10760 10761 10764 10764 10765 10770 10773 10768 10766 10770 10772 10774 10776 10779 10783 10786 10787 10791 10796 10801 10805 10809 10812 10814 10816 10819 10821
10859 10859 10859 10859 10859 10859 10859 10859 10858 10858 10857 10857 10856 10855 10854 10854 10852 10851 10850 10848 10846 10844 10842 10840 10838 10835 10832 10830 10827 10824 10821 10819 10816 10813 10810 10807 10805 10801 10797 10793 10788 10784 10782 10779 10777 10774 10771 10767 10765 10762 10759 10758 10755 10753 10752 10751 10751 10752 10751 10750 10750 10750 10752 10754 10756 10759 10761 10759 10757 10758 10763 10767 10768 10769 10772 10775 10778 10782 10787 10792 10797 10801 10805 10807 10810 10812 10815
10857 10857 10857 10857 10857 10856 10856 10856 10855 10855 10854 10853 10853 10852 10851 10850 10849 10848 10846 10844 10842 10840 10838 10835 10833 10830 10828 10825 10822 10819 10816 10813 10810 10807 10804 10800 10797 10794 10790 10785 10780 10776 10773 10770 10767 10765 10762 10758 10756 10753 10751 10749 10747 10745 10744 10742 10740 10740 10741 10741 10741 10740 10740 10741 10744 10747 10751 10750 10748 10750 10756 10758 10758 10759 10761 10764 10768 10772 10776 10782 10788 10793 10796 10800 10803 10806 10809
10854 10854 10854 10854 10853 10853 10853 10853 10852 10851 10851 10850 10849 10849 10848 10847 10845 10843 10841 10839 10838 10836 10833 10831 10828 10826 10822 10819 10816 10813 10810 10807 10804 10800 10797 10792 10789 10785 10782 10777 10772 10767 10763 10760 10757 10755 10752 10749 10746 10743 10740 10739 10737 10736 10735 10733 10731 10730 10730 10730 10731 10731 10730 10730 10730 10734 10739 10740 10738 10741 10746 10747 10747 10751 10751 10753 10758 10762 10767 10773 10780 10785 10789 10792 10795 10799 10802
10851 10851 10851 10850 10850 10850 10850 10849 10849 10848 10847 10846 10845 10845 10844 10843 10841 10839 10836 10834 10832 10831 10828 10826 10823 10821 10818 10814 10810 10807 10803 10800 10797 10794 10790 10785 10780 10776 10773 10768 10763 10759 10755 10751 10747 10744 10741 10739 10736 10732 10729 10727 10726 10726 10725 10724 10723 10722 10720 10719 10720 10721 10721 10721 10719 10720 10726 10730 10729 10730 10735 10738 10741 10742 10742 10744 10748 10752 10757 10764 10771 10777 10782 10785 10788 10792 10796
10849 10848 10848 10847 10847 10846 10846 10846 10846 10845 10844 10843 10841 10840 10839 10838 10836 10834 10831 10829 10827 10825 10823 10820 10817 10815 10812 10809 10804 10801 10797 10794 10790 10786 10782 10778 10773 10769 10764 10760 10754 10749 10746 10742 10738 10734 10731 10728 10725 10722 10719 10716 10714 10713 10713 10713 10712 10713 10712 10710 10710 10711 10711 10712 10711 10710 10712 10717 10720 10721 10723 10728 10730 10729 10731 10736 10739 10742 10748 10756 10762 10769 10774 10777 10781 10785 10789
10845 10845 10844 10844 10843 10843 10842 10842 10842 10841 10840 10839 10837 10836 10834 10833 10831 10829 10827 10824 10821 10819 10816 10813 10810 10808 10805 10802 10798 10794 10790 10786 10782 10777 10773 10768 10764 10759 10755 10752 10747 10742 10737 10733 10729 10725 10721 10718 10715 10712 10709 10706 10703 10701 10701 10700 10700 10701 10702 10701 10701 10701 10701 10702 10702 10701 10700 10704 10709 10711 10711 10714 10716 10716 10720 10726 10730 10734 10740 10746 10754 10761 10766 10770 10774 10778 10781
10842 10842 10841 10840 10839 10839 10838 10838 10837 10836 10835 10834 10833 10832 10830 10828 10826 10824 10822 10819 10816 10813 10810 10807 10804 10800 10798 10795 10791 10787 10782 10778 10773 10769 10764 10759 10753 10748 10743 10739 10736 10732 10728 10724 10720 10716 10711 10708 10705 10701 10699 10696 10693 10691 10689 10688 10688 10688 10690 10692 10692 10692 10692 10692 10691 10691 10691 10692 10696 10699 10700 10702 10704 10707 10710 10715 10720 10725 10732 10739 10746 10752 10756 10760 10765 10769 10773
10838 10838 10837 10836 10836 10835 10834 10833 10832 10831 10830 10829 10828 10827 10826 10824 10822 10819 10817 10814 10811 10807 10803 10800 10797 10794 10790 10787 10784 10779 10774 10770 10766 10761 10756 10750 10745 10740 10734 10728 10724 10721 10717 10713 10709 10705 10701 10698 10694 10691 10688 10686 10684 10681 10679 10678 10677 10676 10676 10679 10682 10683 10683 10682 10682 10681 10681 10682 10684 10687 10690 10692 10694 10696 10700 10705 10709 10715 10723 10731 10736 10741 10745 10751 10757 10761 10766
10834 10834 10834 10833 10832 10831 10830 10829 10828 10826 10825 10824 10823 10821 10820 10818 10817 10815 10812 10810 10806 10802 10798 10794 10790 10787 10784 10780 10776 10772 10767 10762 10758 10753 10748 10742 10737 10732 10726 10719 10714 10710 10706 10703 10699 10694 10691 10687 10684 10680 10678 10675 10673 10672 10669 10667 10667 10666 10665 10668 10671 10673 10673 10673 10672 10672 10671 10672 10674 10677 10680 10683 10684 10685 10689 10695 10699 10706 10714 10721 10725 10729 10735 10743 10749 10754 10759
10830 10830 10830 10829 10828 10827 10825 10824 10823 10822 10820 10818 10817 10816 10814 10812 10810 10809 10807 10805 10802 10797 10792 10788 10784 10781 10777 10773 10769 10765 10760 10754 10749 10746 10741 10735 10728 10722 10717 10711 10704 10699 10696 10692 10688 10684 10680 10676 10673 10670 10668 10665 10663 10661 10659 10657 10656 10656 10656 10658 10659 10662 10664 10664 10663 10662 10662 10663 10665 10668 10671 10674 10675 10676 10679 10684 10691 10699 10707 10714 10719 10723 10729 10736 10742 10747 10752
10826 10825 10825 10824 10823 10822 10821 10820 10818 10817 10815 10813 10812 10811 10808 10806 10804 10802 10800 10798 10796 10791 10786 10781 10777 10774 10770 10766 10761 10757 10752 10747 10742 10737 10733 10727 10720 10713 10708 10702 10695 10690 10685 10682 10678 10674 10670 10666 10662 10659 10657 10655 10653 10651 10649 10648 10646 10646 10648 10648 10650 10653 10654 10653 10652 10653 10654 10656 10658 10660 10662 10664 10666 10668 10671 10677 10684 10692 10700 10707 10714 10720 10726 10731 10736 10742 10748
10821 10821 10820 10820 10819 10818 10816 10815 10813 10811 10810 10808 10807 10805 10803 10801 10798 10795 10792 10791 10789 10785 10779 10773 10769 10765 10762 10757 10752 10748 10744 10739 10733 10728 10723 10718 10712 10705 10699 10693 10687 10681 10676 10672 10668 10664 10660 10656 10652 10649 10647 10645 10642 10640 10639 10638 10637 10638 10639 10639 10641 10643 10644 10643 10644 10645 10647 10649 10651 10652 10653 10655 10658 10661 10665 10670 10677 10684 10692 10699 10705 10712 10718 10722 10728 10735 10741
10816 10816 10816 10815 10814 10813 10811 10809 10808 10806 10805 10803 10802 10800 10798 10795 10792 10789 10786 10783 10782 10779 10775 10768 10761 10757 10754 10749 10744 10739 10735 10730 10724 10718 10713 10708 10702 10696 10690 10684 10679 10673 10667 10663 10659 10655 10651 10647 10643 10639 10637 10634 10631 10629 10628 10627 10627 10628 10629 10630 10632 10633 10634 10635 10637 10638 10639 10641 10644 10645 10646 10647 10651 10655 10658 10663 10669 10676 10683 10690 10696 10701 10707 10713 10718 10724 10730
10812 10811 10811 10810 10809 10808 10806 10804 10803 10801 10799 10798 10796 10794 10792 10789 10786 10783 10780 10777 10774 10772 10769 10764 10755 10749 10745 10742 10737 10731 10726 10721 10715 10710 10704 10698 10692 10687 10681 10676 10670 10664 10659 10654 10650 10646 10642 10638 10634 10630 10627 10624 10620 10618 10617 10617 10617 10618 10620 10622 10624 10625 10626 10628 10630 10631 10632 10634 10637 10639 10640 10642 10645 10650 10653 10656 10661 10667 10674 10681 10687 10691 10696 10703 10709 10716 10721
10807 10806 10805 10805 10804 10802 10800 10798 10797 10796 10794 10792 10790 10788 10785 10783 10779 10776 10773 10770 10766 10763 10761 10758 10751 10744 10738 10734 10730 10724 10718 10712 10707 10701 10695 10689 10683 10678 10672 10667 10661 10655 10650 10646 10642 10638 10634 10630 10626 10622 10618 10614 10611 10609 10608 10608 10608 10609 10612 10616 10616 10617 10619 10622 10623 10623 10626 10629 10631 10633 10635 10638 10641 10644 10648 10651 10655 10660 10665 10672 10678 10683 10687 10693 10701 10709 10714
10801 10801 10800 10799 10798 10796 10795 10793 10792 10790 10788 10786 10784 10781 10779 10776 10773 10770 10766 10763 10759 10755 10751 10748 10744 10738 10732 10726 10722 10716 10710 10704 10698 10692 10685 10679 10674 10669 10664 10658 10653 10647 10642 10638 10634 10631 10627 10623 10619 10615 10611 10607 10604 10602 10601 10601 10602 10604 10607 10609 10609 10609 10612 10615 10616 10618 10620 10624 10626 10627 10630 10633 10635 10638 10642 10646 10649 10653 10658 10663 10669 10674 10679 10685 10693 10700 10705
10796 10795 10794 10793 10792 10791 10790 10788 10787 10784 10782 10780 10777 10775 10772 10770 10767 10763 10759 10756 10752 10748 10744 10739 10735 10730 10724 10718 10713 10707 10701 10695 10689 10683 10677 10670 10665 10660 10656 10650 10645 10640 10635 10631 10628 10624 10620 10616 10613 10610 10606 10602 10600 10597 10596 10597 10598 10599 10601 10602 10602 10603 10607 10609 10611 10613 10615 10618 10621 10622 10624 10627 10630 10633 10637 10640 10644 10647 10650 10655 10661 10666 10671 10677 10684 10690 10696
10790 10789 10788 10787 10786 10785 10784 10783 10781 10778 10776 10773 10771 10769 10766 10763 10760 10756 10752 10748 10744 10740 10736 10732 10726 10722 10717 10711 10704 10698 10692 10686 10680 10674 10668 10662 10657 10652 10648 10643 10638 10633 10628 10625 10621 10618 10614 10611 10608 10605 10602 10599 10597 10595 10594 10594 10594 10595 10596 10597 10599 10601 10603 10606 10607 10609 10611 10614 10617 10618 10619 10622 10625 10628 10631 10635 10638 10641 10644 10648 10653 10657 10662 10668 10674 10681 10687
10784 10784 10783 10781 10780 10780 10778 10777 10775 10773 10770 10767 10765 10762 10759 10756 10753 10749 10745 10741 10736 10732 10728 10723 10718 10713 10708 10702 10696 10690 10683 10677 10671 10665 10660 10654 10649 10644 10640 10636 10631 10626 10622 10618 10615 10612 10609 10606 10604 10601 10599 10596 10594 10593 10592 10592 10592 10593 10594 10595 10596 10598 10599 10601 10603 10605 10607 10610 10612 10613 10614 10617 10620 10623 10625 10628 10632 10634 10637 10640 10644 10648 10652 10658 10664 10670 10677
10778 10778 10777 10776 10775 10774 10772 10771 10769 10767 10764 10762 10758 10755 10752 10749 10745 10742 10738 10733 10728 10724 10720 10715 10710 10704 10699 10693 10687 10681 10675 10668 10662 10656 10650 10645 10641 10636 10632 10628 10624 10619 10616 10613 10610 10607 10605 10602 10600 10598 10596 10594 10592 10591 10590 10590 10590 10591 10592 10593 10594 10595 10596 10598 10599 10601 10602 10604 10606 10608 10609 10611 10614 10616 10619 10622 10625 10627 10630 10633 10636 10639 10644 10649 10655 10661 10667
10773 10772 10771 10770 10769 10768 10767 10765 10762 10760 10758 10756 10753 10749 10746 10742 10738 10735 10731 10727 10722 10717 10712 10707 10702 10696 10691 10685 10679 10672 10666 10660 10653 10647 10641 10636 10632 10628 10624 10621 10618 10614 10610 10607 10605 10602 10600 10598 10596 10595 10593 10592 10590 10589 10589 10588 10588 10589 10589 10590 10591 10592 10593 10594 10595 10597 10597 10599 10600 10602 10604 10606 10608 10610 10613 10616 10619 10621 10623 10626 10629 10632 10636 10640 10646 10653 10659
10767 10766 10765 10764 10763 10762 10761 10758 10756 10754 10752 10749 10746 10743 10739 10735 10731 10728 10724 10720 10715 10710 10705 10699 10694 10688 10683 10677 10671 10665 10658 10652 10645 10638 10633 10628 10623 10620 10617 10614 10612 10608 10605 10602 10600 10598 10596 10594 10592 10591 10590 10589 10588 10587 10586 10586 10586 10586 10586 10587 10588 10588 10589 10590 10591 10592 10592 10593 10594 10596 10598 10600 10602 10604 10606 10610 10613 10615 10617 10619 10621 10625 10628 10632 10637 10643 10650
10761 10760 10759 10757 10757 10756 10754 10752 10750 10748 10746 10743 10740 10736 10732 10728 10724 10720 10717 10712 10707 10702 10697 10692 10687 10681 10675 10669 10663 10656 10650 10643 10636 10630 10624 10619 10615 10612 10609 10607 10605 10602 10599 10597 10596 10594 10592 10591 10589 10587 10587 10586 10586 10585 10584 10584 10584 10583 10583 10583 10584 10584 10585 10586 10586 10587 10587 10587 10588 10589 10591 10594 10596 10598 10599 10602 10605 10608 10610 10612 10614 10617 10620 10624 10628 10634 10641
10755 10753 10753 10752 10750 10749 10748 10746 10743 10741 10739 10736 10733 10729 10725 10722 10717 10713 10709 10705 10700 10694 10689 10684 10679 10673 10666 10660 10653 10647 10641 10635 10628 10621 10616 10611 10608 10605 10602 10600 10598 10597 10594 10593 10591 10589 10588 10586 10585 10584 10583 10583 10582 10582 10581 10581 10581 10581 10580 10580 10580 10581 10581 10582 10582 10582 10582 10582 10582 10583 10585 10587 10589 10591 10593 10595 10598 10601 10604 10605 10607 10610 10613 10616 10621 10626 10633
10748 10747 10746 10745 10744 10742 10741 10739 10736 10734 10732 10729 10726 10723 10718 10714 10710 10706 10702 10697 10692 10687 10682 10677 10671 10665 10659 10652 10644 10638 10632 10626 10620 10614 10609 10604 10601 10599 10596 10594 10592 10591 10590 10588 10587 10585 10584 10582 10581 10581 10581 10580 10579 10578 10577 10577 10577 10577 10577 10577 10577 10577 10577 10577 10577 10577 10577 10577 10578 10578 10579 10580 10581 10583 10586 10588 10591 10594 10597 10599 10601 10604 10606 10609 10614 10619 10624
10741 10741 10740 10739 10737 10736 10734 10732 10729 10727 10725 10722 10719 10716 10712 10708 10703 10699 10694 10690 10685 10680 10675 10670 10663 10657 10650 10643 10636 10629 10624 10618 10612 10607 10603 10598 10595 10593 10591 10589 10588 10586 10585 10585 10583 10582 10581 10580 10578 10578 10578 10577 10576 10575 10574 10574 10574 10574 10574 10574 10573 10573 10573 10573 10573 10573 10573 10573 10573 10573 10573 10573 10574 10576 10579 10581 10584 10587 10590 10592 10595 10598 10600 10603 10607 10612 10617
10735 10734 10733 10732 10730 10729 10727 10725 10722 10720 10717 10715 10711 10708 10705 10701 10697 10692 10688 10683 10678 10673 10667 10662 10655 10648 10641 10634 10627 10621 10615 10610 10605 10600 10597 10593 10590 10588 10586 10585 10583 10582 10581 10581 10580 10579 10578 10577 10576 10575 10574 10574 10573 10572 10572 10572 10571 10571 10571 10571 10570 10570 10570 10569 10569 10568 10569 10569 10570 10569 10568 10568 10568 10570 10572 10575 10577 10580 10583 10586 10589 10592 10594 10597 10601 10606 10611
10728 10728 10726 10725 10724 10722 10720 10718 10715 10713 10710 10707 10704 10701 10697 10693 10689 10685 10681 10676 10671 10665 10659 10653 10646 10639 10632 10626 10619 10613 10608 10603 10599 10595 10591 10588 10586 10584 10582 10581 10579 10578 10577 10577 10576 10576 10575 10574 10573 10572 10572 10571 10570 10570 10569 10569 10569 10569 10568 10568 10567 10567 10567 10566 10566 10565 10565 10566 10566 10565 10564 10563 10564 10565 10566 10569 10571 10574 10577 10580 10583 10586 10588 10591 10596 10600 10605
10722 10721 10720 10719 10717 10715 10713 10711 10708 10705 10703 10700 10697 10693 10689 10685 10681 10677 10673 10668 10663 10657 10651 10645 10638 10631 10624 10617 10611 10606 10602 10597 10593 10589 10586 10584 10582 10580 10579 10577 10576 10575 10574 10573 10573 10572 10572 10571 10571 10570 10569 10568 10568 10567 10567 10567 10567 10566 10566 10565 10565 10565 10564 10564 10563 10562 10562 10562 10562 10561 10561 10560 10560 10561 10562 10563 10565 10568 10571 10574 10577 10580 10582 10586 10590 10595 10599
10715 10714 10713 10712 10710 10708 10706 10703 10701 10698 10696 10693 10690 10686 10681 10677 10673 10669 10665 10660 10655 10650 10644 10637 10631 10624 10617 10610 10604 10599 10595 10592 10588 10584 10582 10580 10578 10577 10575 10574 10573 10572 10571 10571 10570 10569 10569 10569 10568 10567 10567 10566 10565 10565 10565 10565 10565 10564 10564 10563 10563 10563 10562 10562 10561 10560 10560 10559 10559 10558 10557 10557 10556 10556 10557 10558 10559 10562 10566 10569 10572 10574 10577 10580 10585 10589 10593
10708 10707 10706 10705 10703 10701 10699 10696 10694 10691 10689 10686 10683 10679 10674 10670 10666 10661 10656 10651 10647 10642 10636 10630 10623 10617 10610 10604 10598 10593 10589 10586 10583 10580 10578 10576 10574 10573 10572 10570 10570 10569 10569 10568 10567 10567 10567 10566 10566 10565 10564 10564 10563 10563 10563 10563 10563 10563 10562 10562 10561 10561 10560 10560 10559 10559 10558 10557 10556 10555 10554 10553 10553 10552 10552 10553 10554 10557 10560 10563 10566 10570 10573 10576 10580 10584 10588
10702 10701 10700 10698 10696 10694 10691 10689 10687 10685 10682 10679 10675 10671 10667 10662 10658 10654 10648 10643 10638 10634 10628 10622 10616 10610 10603 10598 10593 10589 10584 10581 10578 10576 10574 10572 10571 10569 10568 10567 10567 10566 10566 10566 10565 10565 10564 10564 10564 10563 10562 10562 10562 10562 10562 10563 10562 10562 10561 10560 10560 10559 10559 10559 10558 10557 10556 10555 10554 10552 10551 10550 10549 10549 10549 10549 10550 10552 10555 10558 10561 10565 10569 10573 10576 10581 10585
10695 10694 10693 10691 10689 10687 10684 10682 10679 10678 10676 10672 10668 10664 10659 10654 10650 10646 10640 10634 10629 10625 10620 10614 10609 10603 10597 10591 10587 10584 10580 10576 10574 10572 10571 10569 10567 10566 10565 10565 10564 10564 10563 10563 10563 10563 10563 10562 10562 10561 10561 10561 10561 10561 10562 10562 10561 10561 10560 10560 10559 10559 10559 10558 10557 10556 10555 10553 10552 10550 10549 10548 10547 10546 10546 10546 10547 10549 10551 10554 10558 10562 10566 10570 10574 10578 10583
10688 10687 10686 10684 10682 10680 10677 10675 10673 10671 10669 10665 10660 10657 10652 10647 10643 10639 10633 10627 10622 10617 10612 10607 10601 10596 10591 10586 10582 10579 10576 10573 10570 10569 10567 10566 10564 10563 10562 10562 10561 10561 10561 10561 10561 10561 10561 10560 10560 10560 10560 10560 10560 10560 10560 10560 10560 10560 10560 10561 10560 10560 10559 10558 10556 10555 10554 10552 10551 10550 10548 10547 10546 10545 10544 10544 10545 10547 10549 10552 10555 10559 10563 10568 10573 10577 10582
10681 10680 10679 10677 10675 10672 10670 10668 10666 10665 10662 10658 10653 10649 10645 10639 10635 10631 10626 10620 10615 10610 10605 10600 10595 10590 10585 10581 10577 10574 10572 10569 10567 10565 10564 10562 10561 10560 10560 10559 10559 10559 10559 10559 10559 10559 10559 10559 10558 10558 10558 10559 10559 10559 10559 10559 10559 10560 10561 10561 10561 10560 10559 10558 10557 10555 10554 10552 10551 10550 10548 10547 10546 10546 10545 10545 10545 10546 10548 10551 10554 10558 10561 10565 10570 10574 10579
10674 10673 10672 10670 10667 10665 10663 10661 10660 10658 10655 10650 10646 10642 10637 10632 10628 10623 10618 10613 10609 10604 10599 10594 10589 10585 10580 10576 10573 10570 10568 10566 10564 10562 10561 10560 10558 10558 10557 10557 10557 10557 10557 10557 10557 10557 10557 10557 10557 10557 10557 10557 10558 10558 10558 10558 10559 10560 10561 10562 10561 10561 10560 10559 10557 10555 10554 10553 10552 10550 10548 10548 10548 10547 10547 10547 10547 10548 10549 10551 10555 10558 10561 10563 10567 10571 10575
10667 10666 10664 10663 10661 10658 10656 10654 10653 10651 10648 10643 10639 10635 10630 10625 10621 10616 10610 10606 10603 10598 10593 10588 10584 10579 10575 10572 10569 10566 10564 10562 10561 10559 10558 10557 10556 10555 10555 10555 10555 10556 10556 10556 10556 10556 10555 10555 10555 10555 10556 10556 10556 10557 10557 10558 10559 10560 10562 10562 10562 10561 10560 10559 10557 10556 10555 10554 10553 10552 10551 10550 10550 10549 10549 10549 10549 10550 10551 10553 10555 10558 10560 10562 10565 10568 10573
10660 10658 10657 10655 10653 10651 10648 10647 10646 10644 10640 10636 10632 10628 10622 10617 10614 10609 10603 10599 10596 10592 10587 10582 10578 10575 10571 10567 10565 10563 10561 10559 10558 10556 10555 10555 10554 10554 10553 10553 10554 10554 10554 10554 10553 10553 10553 10553 10554 10554 10555 10555 10555 10556 10556 10558 10559 10560 10562 10563 10562 10561 10560 10559 10558 10557 10557 10556 10555 10555 10554 10553 10552 10551 10551 10551 10551 10551 10553 10554 10556 10557 10559 10561 10564 10567 10572
10653 10651 10649 10648 10646 10644 10641 10639 10638 10636 10633 10629 10625 10620 10615 10611 10607 10602 10596 10593 10590 10586 10581 10576 10573 10570 10567 10563 10561 10559 10558 10556 10554 10553 10552 10552 10551 10551 10551 10552 10552 10552 10551 10551 10551 10551 10551 10552 10552 10553 10553 10554 10555 10555 10556 10558 10559 10560 10562 10562 10562 10562 10561 10561 10560 10559 10558 10557 10557 10557 10556 10555 10555 10554 10553 10553 10553 10553 10554 10555 10556 10558 10560 10562 10564 10568 10571
10645 10643 10642 10641 10639 10637 10635 10632 10630 10628 10625 10622 10617 10612 10607 10603 10599 10595 10590 10586 10583 10579 10575 10571 10567 10565 10562 10559 10557 10556 10554 10553 10551 10550 10550 10549 10549 10549 10549 10550 10550 10549 10549 10549 10549 10549 10550 10550 10551 10552 10552 10553 10554 10554 10555 10557 10559 10560 10561 10562 10562 10562 10562 10562 10562 10561 10560 10559 10559 10559 10558 10557 10557 10557 10556 10555 10555 10555 10555 10556 10557 10559 10561 10563 10566 10569 10572
10637 10635 10635 10634 10632 10630 10628 10625 10622 10619 10617 10614 10610 10605 10600 10596 10592 10588 10585 10581 10577 10573 10569 10566 10562 10560 10558 10556 10553 10552 10551 10550 10549 10548 10547 10547 10546 10546 10547 10547 10547 10547 10547 10546 10547 10547 10548 10549 10550 10550 10551 10553 10553 10554 10555 10557 10558 10560 10561 10562 10562 10562 10562 10563 10563 10563 10562 10561 10561 10560 10560 10559 10559 10558 10558 10557 10557 10557 10557 10558 10559 10560 10562 10564 10567 10569 10572